• In Hungary
  • List of Countries
  • For 7 days
  • Water Temperature
  • Satellite Maps
  • Weather Map
  • News
  • Weather Widgets
  • user-avatar
    Login

    Hourly Weather Olhovec

    Today, 24 June, Sunday

    Time Temperature Precipitation Wind Pressure Humidity
    00:00 +22°C° 0 mm 5 mps 739 mmHg 76%
    01:00 +21°C° 0 mm 4 mps 739 mmHg 77%
    02:00 +21°C° 0 mm 4 mps 739 mmHg 77%
    03:00 +21°C° 0 mm 4 mps 738 mmHg 75%
    04:00 +21°C° 0 mm 4 mps 738 mmHg 76%
    05:00 +21°C° 0 mm 4 mps 738 mmHg 77%
    06:00 +21°C° 0 mm 4 mps 738 mmHg 79%
    07:00 +22°C° 0 mm 5 mps 738 mmHg 75%
    08:00 +23°C° 0 mm 5 mps 738 mmHg 71%
    09:00 +25°C° 0 mm 5 mps 738 mmHg 69%
    10:00 +26°C° 0 mm 4 mps 738 mmHg 67%
    11:00 +27°C° 0 mm 4 mps 739 mmHg 64%
    12:00 +28°C° 0 mm 4 mps 739 mmHg 61%
    13:00 +28°C° 0.3 mm 4 mps 739 mmHg 62%
    14:00 +28°C° 0.3 mm 4 mps 739 mmHg 63%
    15:00 +29°C° 0 mm 4 mps 739 mmHg 64%
    16:00 +27°C° 1.4 mm 4 mps 739 mmHg 71%
    17:00 +25°C° 1.4 mm 4 mps 739 mmHg 79%
    18:00 +22°C° 1.4 mm 5 mps 739 mmHg 86%
    19:00 +21°C° 1.6 mm 5 mps 740 mmHg 89%
    20:00 +19°C° 1.6 mm 4 mps 740 mmHg 92%
    21:00 +18°C° 1.6 mm 4 mps 740 mmHg 95%
    22:00 +17°C° 0.8 mm 4 mps 741 mmHg 94%
    23:00 +15°C° 0.8 mm 4 mps 741 mmHg 94%

    Tomorrow, 25 June, Monday

    Time Temperature Precipitation Wind Pressure Humidity
    00:00 +14°C° 0.8 mm 4 mps 741 mmHg 93%
    01:00 +14°C° 0 mm 4 mps 742 mmHg 93%
    02:00 +13°C° 0 mm 4 mps 742 mmHg 93%
    03:00 +13°C° 0 mm 4 mps 743 mmHg 92%
    04:00 +13°C° 0 mm 4 mps 743 mmHg 91%
    05:00 +12°C° 0 mm 4 mps 744 mmHg 90%
    06:00 +12°C° 0 mm 4 mps 744 mmHg 89%
    07:00 +14°C° 0 mm 4 mps 744 mmHg 83%
    08:00 +15°C° 0 mm 4 mps 745 mmHg 78%
    09:00 +18°C° 0 mm 4 mps 745 mmHg 72%
    10:00 +19°C° 0 mm 3 mps 745 mmHg 68%
    11:00 +20°C° 0 mm 3 mps 746 mmHg 64%
    12:00 +21°C° 0 mm 3 mps 746 mmHg 59%
    13:00 +21°C° 0 mm 3 mps 746 mmHg 58%
    14:00 +22°C° 0 mm 3 mps 746 mmHg 58%
    15:00 +22°C° 0 mm 3 mps 746 mmHg 57%
    16:00 +23°C° 0 mm 2 mps 746 mmHg 59%
    17:00 +23°C° 0 mm 2 mps 746 mmHg 61%
    18:00 +23°C° 0 mm 2 mps 746 mmHg 64%
    19:00 +20°C° 0 mm 2 mps 747 mmHg 68%
    20:00 +18°C° 0 mm 2 mps 747 mmHg 73%
    21:00 +17°C° 0 mm 2 mps 747 mmHg 78%
    22:00 +16°C° 0 mm 2 mps 747 mmHg 79%
    23:00 +15°C° 0 mm 2 mps 748 mmHg 81%

    Day after tomorrow, 26 June, Tuesday

    Time Temperature Precipitation Wind Pressure Humidity
    00:00 +15°C° 0 mm 2 mps 748 mmHg 83%
    01:00 +14°C° 0 mm 2 mps 748 mmHg 85%
    02:00 +14°C° 0 mm 2 mps 748 mmHg 86%
    03:00 +13°C° 0 mm 2 mps 748 mmHg 88%
    04:00 +14°C° 0 mm 2 mps 748 mmHg 87%
    05:00 +15°C° 0 mm 2 mps 749 mmHg 85%
    06:00 +15°C° 0 mm 2 mps 749 mmHg 84%
    07:00 +17°C° 0 mm 2 mps 749 mmHg 79%
    08:00 +19°C° 0 mm 2 mps 749 mmHg 74%
    09:00 +20°C° 0 mm 3 mps 749 mmHg 69%
    10:00 +21°C° 0 mm 3 mps 749 mmHg 65%
    11:00 +24°C° 0 mm 3 mps 749 mmHg 60%
    12:00 +25°C° 0 mm 3 mps 749 mmHg 56%
    13:00 +25°C° 0 mm 3 mps 749 mmHg 55%
    14:00 +26°C° 0 mm 3 mps 748 mmHg 54%
    15:00 +26°C° 0 mm 3 mps 748 mmHg 53%
    16:00 +26°C° 0 mm 2 mps 748 mmHg 57%
    17:00 +26°C° 0 mm 2 mps 748 mmHg 61%
    18:00 +26°C° 0 mm 2 mps 748 mmHg 64%
    19:00 +24°C° 0 mm 2 mps 748 mmHg 67%
    20:00 +21°C° 0 mm 2 mps 748 mmHg 69%
    21:00 +20°C° 0 mm 2 mps 748 mmHg 72%
    22:00 +19°C° 0 mm 3 mps 748 mmHg 72%
    23:00 +18°C° 0 mm 3 mps 748 mmHg 73%

    27 June, Wednesday

    Time Temperature Precipitation Wind Pressure Humidity
    00:00 +18°C° 0 mm 3 mps 748 mmHg 74%
    01:00 +17°C° 0 mm 3 mps 748 mmHg 75%
    02:00 +17°C° 0 mm 3 mps 748 mmHg 76%
    03:00 +17°C° 0 mm 3 mps 748 mmHg 77%
    04:00 +17°C° 0 mm 3 mps 748 mmHg 78%
    05:00 +17°C° 0 mm 4 mps 748 mmHg 80%
    06:00 +17°C° 0 mm 4 mps 748 mmHg 81%
    07:00 +19°C° 0 mm 4 mps 748 mmHg 78%
    08:00 +21°C° 0 mm 4 mps 748 mmHg 74%
    09:00 +22°C° 0 mm 4 mps 748 mmHg 71%
    10:00 +23°C° 0 mm 4 mps 748 mmHg 68%
    11:00 +25°C° 0 mm 4 mps 748 mmHg 64%
    12:00 +27°C° 0 mm 4 mps 748 mmHg 61%
    13:00 +26°C° 0.3 mm 4 mps 748 mmHg 63%
    14:00 +26°C° 0.3 mm 3 mps 748 mmHg 66%
    15:00 +26°C° 0.3 mm 3 mps 748 mmHg 68%
    16:00 +26°C° 0.1 mm 3 mps 748 mmHg 70%
    17:00 +26°C° 0.1 mm 3 mps 748 mmHg 71%
    18:00 +26°C° 0.1 mm 3 mps 747 mmHg 72%
    19:00 +24°C° 0 mm 3 mps 748 mmHg 73%
    20:00 +22°C° 0 mm 3 mps 748 mmHg 73%
    21:00 +21°C° 0 mm 3 mps 748 mmHg 74%
    22:00 +20°C° 0 mm 3 mps 748 mmHg 74%
    23:00 +19°C° 0 mm 3 mps 748 mmHg 74%

    28 June, Thursday

    Time Temperature Precipitation Wind Pressure Humidity
    00:00 +19°C° 0 mm 3 mps 748 mmHg 74%
    01:00 +18°C° 0 mm 3 mps 748 mmHg 75%
    02:00 +17°C° 0 mm 3 mps 748 mmHg 76%
    03:00 +17°C° 0 mm 3 mps 748 mmHg 77%
    04:00 +17°C° 0 mm 3 mps 748 mmHg 78%
    05:00 +17°C° 0 mm 3 mps 748 mmHg 79%
    06:00 +17°C° 0 mm 3 mps 749 mmHg 80%
    07:00 +19°C° 0 mm 3 mps 748 mmHg 76%
    08:00 +20°C° 0 mm 4 mps 748 mmHg 72%
    09:00 +22°C° 0 mm 4 mps 748 mmHg 68%
    10:00 +23°C° 0 mm 4 mps 748 mmHg 64%
    11:00 +26°C° 0 mm 5 mps 748 mmHg 59%
    12:00 +27°C° 0 mm 5 mps 748 mmHg 55%
    13:00 +28°C° 0 mm 5 mps 748 mmHg 54%
    14:00 +28°C° 0 mm 4 mps 748 mmHg 54%
    15:00 +28°C° 0 mm 4 mps 747 mmHg 53%
    16:00 +28°C° 0 mm 4 mps 747 mmHg 57%
    17:00 +28°C° 0 mm 3 mps 747 mmHg 61%
    18:00 +28°C° 0 mm 3 mps 747 mmHg 65%
    19:00 +26°C° 0 mm 3 mps 746 mmHg 68%
    20:00 +24°C° 0 mm 3 mps 746 mmHg 70%
    21:00 +21°C° 0 mm 3 mps 746 mmHg 73%
    22:00 +20°C° 0 mm 3 mps 746 mmHg 73%
    23:00 +20°C° 0 mm 3 mps 746 mmHg 73%

    29 June, Friday

    Time Temperature Precipitation Wind Pressure Humidity
    00:00 +19°C° 0 mm 3 mps 746 mmHg 74%
    01:00 +18°C° 0 mm 3 mps 746 mmHg 76%
    02:00 +18°C° 0 mm 3 mps 746 mmHg 78%
    03:00 +17°C° 0 mm 2 mps 746 mmHg 80%
    04:00 +17°C° 0 mm 3 mps 746 mmHg 81%
    05:00 +18°C° 0 mm 3 mps 746 mmHg 81%
    06:00 +18°C° 0 mm 3 mps 746 mmHg 81%
    07:00 +20°C° 0 mm 4 mps 746 mmHg 77%
    08:00 +21°C° 0 mm 4 mps 746 mmHg 73%
    09:00 +23°C° 0 mm 5 mps 746 mmHg 69%
    10:00 +25°C° 0 mm 5 mps 746 mmHg 65%
    11:00 +26°C° 0 mm 5 mps 745 mmHg 60%
    12:00 +28°C° 0 mm 5 mps 745 mmHg 56%
    13:00 +28°C° 0 mm 5 mps 745 mmHg 55%
    14:00 +28°C° 0 mm 5 mps 745 mmHg 54%
    15:00 +28°C° 0 mm 5 mps 744 mmHg 54%
    16:00 +28°C° 0 mm 5 mps 744 mmHg 58%
    17:00 +28°C° 0 mm 4 mps 744 mmHg 62%
    18:00 +27°C° 0 mm 3 mps 744 mmHg 66%
    19:00 +26°C° 0 mm 3 mps 743 mmHg 70%
    20:00 +23°C° 0 mm 4 mps 743 mmHg 73%
    21:00 +21°C° 0 mm 4 mps 743 mmHg 77%
    22:00 +20°C° 0 mm 4 mps 743 mmHg 79%
    23:00 +20°C° 0 mm 4 mps 743 mmHg 81%
    Show more